TimeCEST,TemperatureF,Dew PointF,Humidity,Sea Level PressureIn,VisibilityMPH,Wind Direction,Wind SpeedMPH,Gust SpeedMPH,PrecipitationIn,Events,Conditions,WindDirDegrees,DateUTC
12:00 AM,69.8,59.0,68,30.21,-9999.0,North,1.2,-,N/A,,Clear,360,2013-09-02 22:00:00
12:30 AM,69.8,59.0,68,30.21,-9999.0,Calm,Calm,-,N/A,,Clear,0,2013-09-02 22:30:00
1:00 AM,69.8,60.8,73,30.21,-9999.0,Calm,Calm,-,N/A,,Clear,0,2013-09-02 23:00:00
1:30 AM,68.0,60.8,78,30.21,-9999.0,Calm,Calm,-,N/A,,Clear,0,2013-09-02 23:30:00
2:00 AM,66,61,80,30.21,16,ENE,2.3,,,,Clear,60,2013-09-03 00:00:00
2:00 AM,66.2,60.8,83,30.21,-9999.0,Calm,Calm,-,N/A,,Clear,0,2013-09-03 00:00:00
2:30 AM,66.2,60.8,83,30.21,-9999.0,Calm,Calm,-,N/A,,Clear,0,2013-09-03 00:30:00
3:00 AM,64.4,60.8,88,30.18,6.2,NNE,1.2,-,N/A,,Partly Cloudy,30,2013-09-03 01:00:00
3:30 AM,64.4,60.8,88,30.18,6.2,Variable,2.3,-,N/A,,Partly Cloudy,0,2013-09-03 01:30:00
4:00 AM,64.4,60.8,88,30.18,6.2,Calm,Calm,-,N/A,,Partly Cloudy,0,2013-09-03 02:00:00
4:30 AM,64.4,60.8,88,30.18,6.2,Calm,Calm,-,N/A,,Partly Cloudy,0,2013-09-03 02:30:00
5:00 AM,64.4,60.8,88,30.18,6.2,Calm,Calm,-,N/A,,Partly Cloudy,0,2013-09-03 03:00:00
5:30 AM,62.6,59.0,88,30.18,6.2,Calm,Calm,-,N/A,,Partly Cloudy,0,2013-09-03 03:30:00
6:00 AM,62.6,59.0,88,30.18,6.2,Calm,Calm,-,N/A,,Partly Cloudy,0,2013-09-03 04:00:00
6:30 AM,62.6,60.8,94,30.18,6.2,ENE,1.2,-,N/A,,Partly Cloudy,70,2013-09-03 04:30:00
7:00 AM,62.6,59.0,88,30.18,6.2,Calm,Calm,-,N/A,,Partly Cloudy,0,2013-09-03 05:00:00
7:30 AM,62.6,59.0,88,30.18,6.2,Calm,Calm,-,N/A,,Partly Cloudy,0,2013-09-03 05:30:00
8:00 AM,64,61,85,30.19,16,Calm,Calm,,,,Scattered Clouds,,2013-09-03 06:00:00
8:00 AM,64.4,60.8,88,30.18,6.2,Calm,Calm,-,N/A,,Partly Cloudy,0,2013-09-03 06:00:00
8:30 AM,68.0,62.6,83,30.18,6.2,Calm,Calm,-,N/A,,Partly Cloudy,0,2013-09-03 06:30:00
9:00 AM,69.8,64.4,83,30.18,6.2,Calm,Calm,-,N/A,,Partly Cloudy,0,2013-09-03 07:00:00
9:30 AM,75.2,66.2,73,30.18,6.2,Calm,Calm,-,N/A,,Partly Cloudy,0,2013-09-03 07:30:00
10:00 AM,78.8,66.2,65,30.18,6.2,NNW,2.3,-,N/A,,Partly Cloudy,330,2013-09-03 08:00:00
10:30 AM,80.6,59.0,48,30.18,6.2,NW,5.8,18.4,N/A,,Partly Cloudy,320,2013-09-03 08:30:00
11:00 AM,82.4,57.2,42,30.18,6.2,East,2.3,-,N/A,,Partly Cloudy,90,2013-09-03 09:00:00
11:30 AM,82.4,57.2,42,30.18,6.2,NNW,3.5,17.3,N/A,,Partly Cloudy,330,2013-09-03 09:30:00
12:00 PM,84.2,57.2,40,30.18,6.2,West,5.8,-,N/A,,Partly Cloudy,270,2013-09-03 10:00:00
12:30 PM,84.2,57.2,40,30.18,6.2,NW,4.6,-,N/A,,Partly Cloudy,310,2013-09-03 10:30:00
1:00 PM,84.2,59.0,42,30.18,6.2,NNW,1.2,-,N/A,,Partly Cloudy,330,2013-09-03 11:00:00
1:30 PM,84.2,57.2,40,30.18,6.2,WSW,3.5,-,N/A,,Partly Cloudy,250,2013-09-03 11:30:00
2:00 PM,87,58,27,30.17,19,WNW,8.1,,,,Scattered Clouds,300,2013-09-03 12:00:00
2:00 PM,86.0,57.2,37,30.15,6.2,West,10.4,-,N/A,,Partly Cloudy,260,2013-09-03 12:00:00
2:30 PM,86.0,59.0,40,30.15,6.2,West,10.4,-,N/A,,Partly Cloudy,280,2013-09-03 12:30:00
3:00 PM,86.0,59.0,40,30.15,6.2,SW,11.5,-,N/A,,Partly Cloudy,230,2013-09-03 13:00:00
3:30 PM,86.0,59.0,40,30.15,6.2,SW,11.5,-,N/A,,Partly Cloudy,230,2013-09-03 13:30:00
4:00 PM,86.0,59.0,40,30.12,6.2,SW,8.1,-,N/A,,Partly Cloudy,220,2013-09-03 14:00:00
4:30 PM,86.0,57.2,37,30.12,6.2,SW,8.1,-,N/A,,Partly Cloudy,230,2013-09-03 14:30:00
5:00 PM,86.0,59.0,40,30.12,6.2,SW,4.6,-,N/A,,Partly Cloudy,220,2013-09-03 15:00:00
5:30 PM,84.2,59.0,42,30.12,6.2,WSW,8.1,-,N/A,,Partly Cloudy,240,2013-09-03 15:30:00
6:00 PM,84.2,59.0,42,30.12,6.2,SW,6.9,-,N/A,,Partly Cloudy,230,2013-09-03 16:00:00
6:30 PM,84.2,64.4,51,30.12,6.2,West,8.1,-,N/A,,Partly Cloudy,260,2013-09-03 16:30:00
7:00 PM,82.4,64.4,54,30.12,6.2,SSE,5.8,17.3,N/A,,Partly Cloudy,160,2013-09-03 17:00:00
7:30 PM,80.6,64.4,58,30.12,6.2,ENE,9.2,-,N/A,,Partly Cloudy,60,2013-09-03 17:30:00
8:00 PM,79,63,49,30.15,16,ENE,9.2,,,,Scattered Clouds,70,2013-09-03 18:00:00
8:00 PM,78.8,64.4,61,30.12,6.2,East,3.5,-,N/A,,Partly Cloudy,90,2013-09-03 18:00:00
8:30 PM,78.8,62.6,57,30.15,6.2,Variable,1.2,-,N/A,,Partly Cloudy,0,2013-09-03 18:30:00
9:00 PM,77.0,62.6,61,30.15,6.2,Variable,2.3,-,N/A,,Partly Cloudy,0,2013-09-03 19:00:00
9:30 PM,75.2,62.6,65,30.15,6.2,Variable,2.3,-,N/A,,Partly Cloudy,0,2013-09-03 19:30:00
10:00 PM,75.2,62.6,65,30.18,6.2,East,1.2,-,N/A,,Partly Cloudy,90,2013-09-03 20:00:00
10:30 PM,73.4,62.6,69,30.18,6.2,ENE,2.3,-,N/A,,Partly Cloudy,70,2013-09-03 20:30:00
11:00 PM,71.6,62.6,73,30.18,6.2,ENE,4.6,-,N/A,,Partly Cloudy,70,2013-09-03 21:00:00
11:30 PM,69.8,62.6,78,30.18,6.2,East,3.5,-,N/A,,Partly Cloudy,80,2013-09-03 21:30:00